Location: Castelbiague
(43.0361°N, 0.9246°E)
Time: 08:11:24
(UTC+00:00)

Cosmos 1674 - Pass Details

Date: 17 June 2021
Orbit: 494 x 514 km, 82.5° (Epoch: 03 August)

Event Time Altitude Azimuth Distance (km) Brightness Sun altitude
Exits shadow 21:38:03 11° 211° (SSW) 1,654 5.0 -16.2°
Maximum altitude 21:41:28 41° 282° (WNW) 736 3.8 -16.6°
Drops below altitude 10° 21:45:00 10° 354° (N) 1,702 6.3 -16.9°
Sets 21:47:13 0° 2° (N) 2,589 7.2 -17.1°
